Weather in Soboba Springs

United States     33°49′30″N   116°56′38″W
temp.,
°C
wind,
m/s
gust,
m/s
humid.,
%
clouds,
%
prec.,
mm/h
press.,
hPa
HPBL,
m
16 may, sun
sun1623:00+11ssw238095 0.0 1014553
02:00+11s228087 0.0 1014534
05:00+10sse227892 0.1 1014525
08:00+10sse127898 0.0 1016451
11:00+12ssw237396 0.1 1015719
14:00+12ssw347999 0.1 1015643
17:00+13ssw3477100 0.2 1014662
20:00+12ssw228499 0.1 1015429
17 may, mon
mon1723:00+11ssw2392100 0.2 1016305
02:00+10ssw2292100 0.1 1016253
05:00+10s128997 0.1 1016165
08:00+11s127986 0.0 1016483
11:00+16w12587 0.0 1015893
14:00+23wsw33380 0.0 10131424
17:00+20ssw44510 0.0 10131032
20:00+14sw347810 0.0 101485
18 may, tue
tue1823:00+11ssw119541 0.0 101625
02:00+11ssw129098 0.0 1015364
05:00+11s118797 0.0 1014340
08:00+12sse018358 0.0 1015422
11:00+20wnw22460 0.0 1013673
14:00+28wnw33270 0.0 10091203
17:00+25sw43370 0.0 1009836
20:00+17ssw22640 0.0 101114
19 may, wed
wed1923:00+14se12774 0.0 101111
02:00+12ssw11861 0.0 101111
05:00+10wsw118814 0.0 101111
08:00+16nw00660 0.0 1012283
11:00+23wsw22381 0.0 1010978
14:00+27sw77280 0.0 10081743
17:00+23ssw55365 0.0 10081080
20:00+16ssw33660 0.0 100932
20 may, thu
thu2023:00+12s22912 0.0 101119
02:00+11ssw229486 0.0 1011206
05:00+10s228890 0.0 1012360
08:00+11ssw337746 0.0 1012490
11:00+18sw46410 0.0 10111040
14:00+21sw99280 0.0 10091301
17:00+18ssw98430 0.0 1008936
20:00+12ssw457835 0.0 1010146